Weather History for Needles, CA

Change the Weather History Date:

Wednesday, May 15, 2013

  Actual Average Record
Temperature  
Mean Temperature 89 °F -  
Max Temperature 102 °F 95 °F 106 °F (2006)
Min Temperature 78 °F 67 °F 49 °F (1951)
Cooling Degree Days 24    
Growing Degree Days 39 (Base 50)    
Moisture  
Dew Point 28 °F    
Average Humidity 11    
Maximum Humidity 17    
Minimum Humidity 6    
Precipitation  
Precipitation 0.00 in - - ()
Sea Level Pressure  
Sea Level Pressure 29.69 in    
Wind  
Wind Speed 9 mph (SSW)    
Max Wind Speed 18 mph    
Max Gust Speed 25 mph    
Visibility 10 miles    
Events      
Averages and records for this station are not official NWS values.
T = Trace of Precipitation, MM = Missing Value Source: NWS Daily Summary

Daily Weather History Graph

Daily Weather History Graph

Search for Another Location

Airport:

Trip Planner

Search our weather history database for the weather conditions in past years. The results will help you decide how hot, cold, wet, or windy it might be!

Date:

Astronomy

May. 15, 2013 Rise Set
Actual Time 5:35 AM PDT 7:34 PM PDT
Civil Twilight 5:07 AM PDT 8:03 PM PDT
Nautical Twilight 4:33 AM PDT 8:37 PM PDT
Astronomical Twilight 3:56 AM PDT 9:13 PM PDT
Moon 10:12 AM PDT (5/15) No Moon Set
Length of Visible Light 14h 55m
Length of Day
13h 59m
Waxing Crescent, 28% of the Moon is Illuminated
May 15
Waxing Crescent
May 17
First Quarter
May 24
Full
May 31
Last Quarter
Jun 8
New

Hourly Weather History & Observations

Time (PDT) Temp. Dew Point Humidity Pressure Visibility Wind Dir Wind Speed Gust Speed Precip Events Conditions
12:56 AM 84.9 °F 19.9 °F 9% 29.70 in 10.0 mi SW 6.9 mph - N/A   Clear
1:56 AM 82.9 °F 25.0 °F 12% 29.70 in 10.0 mi SSW 4.6 mph - N/A   Clear
2:56 AM 82.0 °F 28.9 °F 14% 29.70 in 10.0 mi West 12.7 mph - N/A   Clear
3:56 AM 82.0 °F 27.0 °F 13% 29.71 in 10.0 mi West 10.4 mph - N/A   Clear
4:56 AM 78.1 °F 27.0 °F 15% 29.71 in 10.0 mi SW 10.4 mph - N/A   Clear
5:56 AM 78.1 °F 28.9 °F 17% 29.73 in 10.0 mi WSW 13.8 mph - N/A   Clear
6:56 AM 82.0 °F 32.0 °F 16% 29.76 in 10.0 mi West 3.5 mph - N/A   Clear
7:56 AM 82.9 °F 27.0 °F 13% 29.77 in 10.0 mi SSE 6.9 mph - N/A   Clear
8:56 AM 89.1 °F 30.0 °F 12% 29.78 in 10.0 mi SSE 9.2 mph - N/A   Clear
9:56 AM 91.0 °F 32.0 °F 12% 29.77 in 10.0 mi South 11.5 mph - N/A   Clear
10:56 AM 93.0 °F 34.0 °F 12% 29.75 in 10.0 mi SW 9.2 mph - N/A   Clear
11:56 AM 96.1 °F 35.1 °F 12% 29.74 in 10.0 mi WSW 13.8 mph - N/A   Clear
12:56 PM 98.1 °F 35.1 °F 11% 29.72 in 10.0 mi SW 18.4 mph 23.0 mph N/A   Clear
1:56 PM 100.0 °F 30.9 °F 9% 29.70 in 10.0 mi SW 12.7 mph 25.3 mph N/A   Clear
2:56 PM 100.0 °F 27.0 °F 8% 29.68 in 10.0 mi South 6.9 mph 17.3 mph N/A   Clear
3:56 PM 100.9 °F 21.9 °F 6% 29.65 in 10.0 mi South 15.0 mph 19.6 mph N/A   Clear
4:56 PM 100.0 °F 21.0 °F 6% 29.64 in 10.0 mi SSE 11.5 mph 24.2 mph N/A   Clear
5:56 PM 99.0 °F 21.0 °F 6% 29.62 in 10.0 mi South 11.5 mph 23.0 mph N/A   Clear
6:56 PM 98.1 °F 24.1 °F 7% 29.61 in 10.0 mi South 13.8 mph - N/A   Clear
7:56 PM 95.0 °F 24.1 °F 8% 29.62 in 10.0 mi South 10.4 mph - N/A   Clear
8:56 PM 90.0 °F 26.1 °F 10% 29.63 in 10.0 mi South 3.5 mph - N/A   Clear
9:56 PM 89.1 °F 26.1 °F 10% 29.65 in 10.0 mi SSW 6.9 mph - N/A   Clear
10:56 PM 86.0 °F 28.9 °F 13% 29.64 in 10.0 mi South 3.5 mph - N/A   Clear
11:56 PM 89.1 °F 33.1 °F 14% 29.65 in 10.0 mi Variable 4.6 mph - N/A   Clear